Location: Newark
(42.8481°N, 0.4872°E)
Time: 08:36:47
(UTC+00:00)

Vanguard 2 - Pass Details

Date: 27 October 2020
Orbit: 554 x 2937 km, 32.9° (Epoch: 28 November)

Event Time Altitude Azimuth Distance (km) Brightness Sun altitude
Rises 17:41:57 0° 201° (SSW) 4,894 12.1 -8.9°
Reaches altitude 10° 17:45:34 10° 189° (S) 4,257 11.6 -9.5°
Maximum altitude 17:55:00 26° 139° (SE) 3,843 10.8 -11.3°
Enters shadow 18:05:09 14° 96° (E) 5,241 11.1 -13.1°
Drops below altitude 10° 18:07:13 10° 91° (E) 5,631 - -13.5°
Sets 18:12:57 0° 82° (E) 6,774 - -14.5°
